[[{"header":{"parameterUnit":"m.s-1","parameterCategory":2,"la1":30.2991,"la2":30.254,"lo1":-89.0895,"lo2":-89.0444,"dy":0.0017,"dx":0.0017,"nx":28,"ny":28,"refTime":"2024-08-02T21:00:00:Z","depth":"0","parameterNumber":2,"parameterNumberName":"U-component_of_CURRENTS"},"data":[0,0,0,0,0,0,0,0,0,0,0,0,0,0,0,0,0,0,0,0,0,0,0,0,0,0,0,0,0,0,0,0,0,0,0,0,0,0,0,0,0,0,0,0,0,0,0,0,0,0,0,0,0,0,0,0,0,0,0.3633,0.3634,0,0.3701,0.3702,0.3703,0.3719,0.3719,0.3718,0.3718,0.3767,0.3769,0.3771,0,0,0,0,0,0,0,0,0,0,0,0,0,0.3569,0.357,0.3633,0.3634,0.3635,0.3701,0.3702,0.3703,0.3719,0.3718,0.3718,0.3718,0.3767,0.3769,0.3771,0,0,0,0,0,0,0,0,0,0,0,0,0,0.3612,0.357,0.3633,0.3651,0.3653,0.3701,0.3702,0.3703,0.3719,0.3718,0.3718,0.3717,0.3766,0.3769,0.3771,0.3799,0,0,0.3779,0.378,0,0,0,0,0,0,0,0,0.361,0.3615,0.3647,0.365,0.3653,0.3701,0.3698,0.3734,0.3719,0.3694,0.3718,0.3717,0.3744,0.3749,0.3762,0.3801,0.3804,0.3779,0.3781,0.3782,0.3783,0,0,0,0,0,0,0,0.3607,0.3612,0.3659,0.3649,0.3652,0.3674,0.3679,0.3705,0.3721,0.3696,0.3697,0.3706,0.3745,0.376,0.3764,0.3804,0.3779,0.3781,0.3783,0.3784,0.3908,0.391,0,0,0,0,0,0,0.3597,0.3609,0.3657,0.3661,0.363,0.3675,0.3681,0.3686,0.3721,0.3726,0.3706,0.3706,0.3756,0.3761,0.3765,0.3861,0.3782,0.3784,0.3786,0.3906,0.3908,0.391,0,0,0,0,0,0,0.3596,0.3601,0.3654,0.3637,0.3646,0.3677,0.3683,0.3688,0.3704,0.3729,0.3734,0.3717,0.3756,0.3762,0.3833,0.3861,0.3785,0.3788,0.3904,0.3907,0.3909,0.4014,0,0,0,0,0,0,0.3594,0.36,0.3604,0.3637,0.3646,0.3694,0.3683,0.3689,0.371,0.3711,0.374,0.3744,0.3756,0.383,0.3836,0.3863,0.379,0.3902,0.3905,0.3909,0.4009,0.402,0.403,0,0,0,0,0,0.3591,0.3612,0.3604,0.361,0.365,0.3695,0.3703,0.3722,0.3711,0.3731,0.3774,0.3743,0.3853,0.3835,0.3841,0.3869,0.39,0.3905,0.3908,0.4004,0.4018,0.403,0,0,0,0,0,0,0.3595,0.3616,0.3608,0.3635,0.3662,0.3698,0.3721,0.3724,0.3771,0.3772,0.3788,0.3798,0.3881,0.3855,0.3834,0.3912,0.3862,0.3868,0.3932,0.3946,0.3956,0.3978,0.3792,0,0,0,0,0,0.3594,0.3608,0.3633,0.3654,0.3667,0.3688,0.3708,0.3718,0.376,0.3778,0.3797,0.3827,0.39,0.3907,0.3959,0.3993,0.402,0.4007,0.4018,0.4027,0.4048,0.4146,0.4168,0.3923,0.3923,0.3923,0,0,0.3602,0.3614,0.3623,0.3654,0.3674,0.3732,0.37,0.3733,0.378,0.3777,0.3843,0.3884,0.3929,0.4002,0.4027,0.3977,0.4109,0.4032,0.404,0.4057,0.4152,0.4177,0.4198,0.3926,0.3926,0.3925,0,0,0.3639,0.3634,0.3663,0.3701,0.3732,0.3755,0.3764,0.3795,0.3802,0.3879,0.3905,0.3973,0.4029,0.4081,0.4117,0.4209,0.4192,0.4189,0.4232,0.4326,0.4348,0.4368,0.443,0.4454,0.4159,0.4159,0.4159,0,0.3648,0.3687,0.3682,0.374,0.3781,0.3772,0.3834,0.3858,0.3906,0.3919,0.3913,0.4059,0.4086,0.4207,0.4243,0.4238,0.4272,0.4183,0.4344,0.4364,0.4382,0.4441,0.4467,0.4164,0.4164,0.4163,0.4163,0,0.3715,0.3761,0.3789,0.3855,0.3899,0.3947,0.3983,0.4002,0.4008,0.403,0.4129,0.4195,0.4269,0.4283,0.4303,0.4426,0.4404,0.4379,0.4317,0.4414,0.4469,0.4494,0.4172,0.417,0.4169,0.4167,0,0,0.3699,0.3811,0.382,0.3873,0.396,0.4,0.4073,0.4126,0.4159,0.4208,0.4278,0.4407,0.4401,0.4443,0.4456,0.4524,0.4685,0.4495,0.4498,0.4567,0.4881,0.4658,0.4663,0.4686,0.4691,0.4695,0.4867,0,0.3749,0.3862,0.3911,0.4035,0.41,0.4135,0.4207,0.4253,0.4276,0.4334,0.439,0.4487,0.4469,0.4517,0.4589,0.4689,0.4755,0.464,0.4768,0.4771,0.4571,0.4686,0.4384,0.4494,0.4891,0.4895,0.4898,0,0.379,0.3865,0.3984,0.4112,0.414,0.4214,0.4293,0.436,0.443,0.4452,0.4532,0.4571,0.4715,0.4672,0.4883,0.4809,0.4855,0.4908,0.4915,0.469,0.4595,0.4461,0.4523,0.4431,0.4936,0.4933,0.493,0,0.3763,0.391,0.3996,0.4051,0.42,0.424,0.4306,0.438,0.4442,0.4531,0.4597,0.4723,0.482,0.4931,0.5025,0.4976,0.5235,0.5174,0.5016,0.5,0.4758,0.471,0.475,0.5316,0.5316,0.5315,0.5315,0,0.3797,0.3876,0.3984,0.4048,0.4155,0.424,0.4341,0.4401,0.4509,0.4593,0.4659,0.4754,0.4895,0.5028,0.5092,0.5135,0.5294,0.506,0.5043,0.4779,0.4733,0.4647,0.4624,0.5321,0.532,0.5319,0.5318,0,0.3798,0.3861,0.3989,0.4121,0.4157,0.424,0.4395,0.4455,0.4551,0.4672,0.4723,0.4847,0.4954,0.5064,0.5241,0.52,0.5119,0.5246,0.4902,0.4837,0.4494,0.4485,0.4368,0.4259,0.5082,0.5078,0.5074,0,0.382,0.3873,0.4031,0.4102,0.4173,0.4289,0.4357,0.447,0.4535,0.4712,0.4766,0.4888,0.488,0.5033,0.4993,0.5026,0.4957,0.478,0.4604,0.4455,0.444,0.4319,0.4231,0.435,0.4341,0.4333,0.4327,0,0.3878,0.3921,0.4028,0.4148,0.4232,0.4327,0.4419,0.4468,0.4581,0.4649,0.4684,0.4687,0.4711,0.4536,0.456,0.4562,0.45,0.4614,0.4584,0.3967,0.3723,0.3613,0.4261,0.426,0.4266,0.4271,0.4275,0.4278,0.3918,0.3989,0.4085,0.4182,0.4264,0.4278,0.4264,0.4334,0.4365,0.4328,0.4484,0.4332,0.4226,0.4121,0.412,0.3889,0.397,0.3736,0.3777,0.3701,0.3453,0.3914,0.3796,0.38,0.3803,0.3806,0.3809,0,0.3925,0.3975,0.4094,0.4152,0.4144,0.4211,0.4222,0.412,0.4013,0.4033,0.3965,0.3736,0.3534,0.3464,0.3273,0.313,0.3035,0.306,0.2878,0.2866,0.3387,0.3206,0.2801,0.2801,0.2801,0.2801,0.2801,0.2801,0.3933,0.3985,0.4005,0.3953,0.397,0.3837,0.3768,0.3642,0.3576,0.3297,0.3094,0.3052,0.3063,0.2933,0.2732,0.2667,0.256,0.2327,0.249,0.2903,0.2971,0.3036,0.2863,0.2392,0.2392,0.178,0.1776,0.1773]},{"header":{"parameterUnit":"m.s-1","parameterCategory":2,"la1":30.2991,"la2":30.254,"lo1":-89.0895,"lo2":-89.0444,"dy":0.0017,"dx":0.0017,"nx":28,"ny":28,"refTime":"2024-08-02T21:00:00:Z","depth":"0","parameterNumber":3,"parameterNumberName":"V-component_of_CURRENTS"},"data":[0,0,0,0,0,0,0,0,0,0,0,0,0,0,0,0,0,0,0,0,0,0,0,0,0,0,0,0,0,0,0,0,0,0,0,0,0,0,0,0,0,0,0,0,0,0,0,0,0,0,0,0,0,0,0,0,0,0,0.0327,0.0327,0,0.0289,0.0288,0.0287,0.0248,0.0247,0.0247,0.0247,0.0194,0.0193,0.0192,0,0,0,0,0,0,0,0,0,0,0,0,0,0.0325,0.0325,0.0327,0.0327,0.0326,0.0289,0.0288,0.0287,0.0248,0.0247,0.0247,0.0246,0.0194,0.0193,0.0192,0,0,0,0,0,0,0,0,0,0,0,0,0,0.0308,0.0325,0.0327,0.0303,0.0301,0.0289,0.0288,0.0287,0.0248,0.0247,0.0247,0.0246,0.0195,0.0193,0.0192,0.0194,0,0,0.0187,0.0186,0,0,0,0,0,0,0,0,0.0309,0.0308,0.0307,0.0305,0.0302,0.0274,0.0268,0.0256,0.0248,0.0266,0.0247,0.0246,0.0221,0.0217,0.0209,0.0191,0.0189,0.0187,0.0186,0.0185,0.0185,0,0,0,0,0,0,0,0.0311,0.031,0.031,0.0307,0.0304,0.028,0.0278,0.0265,0.0246,0.0265,0.0262,0.0261,0.0219,0.0211,0.0207,0.0188,0.0187,0.0185,0.0184,0.0184,0.0201,0.0202,0,0,0,0,0,0,0.0322,0.0311,0.0311,0.0309,0.0306,0.0281,0.0278,0.0282,0.0246,0.0241,0.0261,0.0259,0.0214,0.0209,0.0205,0.0259,0.0185,0.0184,0.0183,0.0199,0.0201,0.0202,0,0,0,0,0,0,0.0322,0.0322,0.0313,0.031,0.0307,0.0282,0.0287,0.0282,0.0275,0.0244,0.0238,0.026,0.0213,0.0208,0.0204,0.0254,0.0183,0.0182,0.0198,0.02,0.0202,0.0331,0,0,0,0,0,0,0.0322,0.0323,0.0329,0.0311,0.0308,0.0319,0.0288,0.0282,0.0276,0.0272,0.0241,0.0235,0.0212,0.0206,0.0202,0.0251,0.018,0.0196,0.0199,0.0201,0.0325,0.0337,0.0348,0,0,0,0,0,0.0322,0.0344,0.033,0.033,0.0318,0.032,0.0317,0.0295,0.0276,0.0284,0.0261,0.0236,0.022,0.0206,0.0201,0.025,0.0195,0.0198,0.0201,0.032,0.0335,0.0348,0,0,0,0,0,0,0.0343,0.0341,0.0326,0.0344,0.0335,0.0314,0.0321,0.0301,0.0288,0.0283,0.0248,0.0241,0.0261,0.023,0.0215,0.0261,0.0206,0.0208,0.0299,0.0312,0.0323,0.0357,0.0179,0,0,0,0,0,0.0351,0.0368,0.0354,0.0368,0.0367,0.0342,0.0339,0.0324,0.031,0.0302,0.0281,0.0264,0.0271,0.0269,0.0259,0.0278,0.0261,0.0307,0.0318,0.0328,0.0351,0.0365,0.0381,0.0213,0.0213,0.0213,0,0,0.0358,0.0363,0.0369,0.0373,0.0363,0.0383,0.0339,0.0343,0.0364,0.03,0.0319,0.03,0.0283,0.0312,0.0318,0.0292,0.0366,0.0332,0.0341,0.0359,0.037,0.0387,0.0401,0.0215,0.0214,0.0214,0,0,0.0397,0.039,0.042,0.0424,0.0422,0.0412,0.0417,0.04,0.0399,0.0411,0.0383,0.0395,0.0382,0.0395,0.0398,0.0464,0.0425,0.0455,0.0545,0.0558,0.0573,0.0585,0.0585,0.0597,0.0462,0.0463,0.0463,0,0.0407,0.0442,0.0427,0.046,0.0474,0.0433,0.0468,0.0467,0.0451,0.0468,0.0434,0.0459,0.0435,0.0502,0.0525,0.0496,0.0484,0.0498,0.0576,0.0588,0.0599,0.0595,0.0606,0.0469,0.0469,0.0468,0.0467,0,0.0466,0.0496,0.0516,0.0549,0.0561,0.0583,0.0582,0.0593,0.0582,0.0582,0.0631,0.0606,0.0628,0.0625,0.0596,0.0672,0.0632,0.059,0.0548,0.0624,0.0614,0.0624,0.0479,0.0476,0.0474,0.0473,0,0,0.0496,0.0548,0.0558,0.0591,0.0611,0.0631,0.0676,0.0713,0.0763,0.0748,0.0824,0.083,0.0814,0.0817,0.0789,0.08,0.0858,0.0734,0.0731,0.0745,0.0881,0.0793,0.0794,0.0826,0.0828,0.083,0.0844,0,0.0548,0.0627,0.0643,0.0721,0.0759,0.0759,0.0817,0.0845,0.086,0.092,0.0916,0.0969,0.089,0.0918,0.0919,0.0889,0.0888,0.0858,0.0795,0.0793,0.0716,0.0804,0.0759,0.0763,0.0853,0.0854,0.0855,0,0.0607,0.0654,0.0734,0.0822,0.0843,0.0887,0.0974,0.1023,0.1089,0.1109,0.1151,0.114,0.1189,0.1094,0.1086,0.1069,0.0987,0.0939,0.0937,0.0821,0.0723,0.0699,0.0775,0.0691,0.0869,0.0868,0.0867,0,0.0634,0.0727,0.0794,0.0819,0.0903,0.0954,0.1008,0.1078,0.116,0.1237,0.1309,0.1326,0.1374,0.1294,0.1193,0.1147,0.1162,0.108,0.0919,0.091,0.0844,0.0826,0.0843,0.1052,0.1052,0.1052,0.1052,0,0.0688,0.0751,0.0815,0.085,0.0962,0.1006,0.1141,0.1187,0.1309,0.1446,0.1416,0.1525,0.1425,0.1414,0.1274,0.1149,0.1224,0.0964,0.0922,0.0884,0.087,0.0766,0.0686,0.1053,0.1053,0.1052,0.1052,0,0.0718,0.0754,0.084,0.0932,0.0974,0.1054,0.1229,0.1348,0.143,0.1613,0.1657,0.171,0.1683,0.155,0.1442,0.127,0.1058,0.1058,0.1014,0.0966,0.0694,0.062,0.0548,0.0498,0.0889,0.0887,0.0886,0,0.0745,0.0784,0.0886,0.0962,0.1012,0.1147,0.1271,0.1392,0.1535,0.1737,0.1848,0.187,0.1906,0.1703,0.1407,0.1151,0.1018,0.0918,0.0806,0.0705,0.0594,0.0544,0.0504,0.0772,0.077,0.0768,0.0766,0,0.08,0.0824,0.0897,0.1037,0.1163,0.1316,0.1495,0.162,0.1804,0.1961,0.215,0.2188,0.1971,0.1704,0.1322,0.112,0.0826,0.0864,0.0794,0.054,0.0457,0.038,0.0729,0.0749,0.0751,0.0752,0.0753,0.0754,0.0842,0.0904,0.1002,0.1144,0.1286,0.1472,0.1611,0.1825,0.2051,0.2287,0.2328,0.2385,0.1982,0.1443,0.1189,0.0674,0.0671,0.0499,0.0431,0.0401,0.0316,0.0614,0.0555,0.0556,0.0556,0.0557,0.0557,0,0.0901,0.0986,0.1123,0.1285,0.144,0.1507,0.1765,0.1921,0.2183,0.2374,0.2513,0.2293,0.1817,0.1334,0.0625,0.0318,0.0229,0.0168,0.0119,0.0108,0.0414,0.0372,0.0232,0.0232,0.0232,0.0232,0.0232,0.0232,0.0949,0.107,0.1144,0.1388,0.1507,0.172,0.1855,0.2079,0.2248,0.2418,0.2414,0.2386,0.2009,0.0889,0.0188,0.0028,-0.011,-0.0208,-0.0239,-0.0009,0.0019,0.0045,-0.0006,-0.0224,-0.0225,-0.0502,-0.0505,-0.0508]}],[{"header":{"parameterUnit":"m.s-1","parameterCategory":2,"la1":30.2991,"la2":30.254,"lo1":-89.0895,"lo2":-89.0444,"dy":0.0017,"dx":0.0017,"nx":28,"ny":28,"refTime":"2024-08-02T21:00:00:Z","depth":"2","parameterNumber":2,"parameterNumberName":"U-component_of_CURRENTS"},"data":[0,0,0,0,0,0,0,0,0,0,0,0,0,0,0,0,0,0,0,0,0,0,0,0,0,0,0,0,0,0,0,0,0,0,0,0,0,0,0,0,0,0,0,0,0,0,0,0,0,0,0,0,0,0,0,0,0,0,0.3048,0.3047,0,0.301,0.301,0.301,0.3002,0.3002,0.3001,0.3001,0.3043,0.3045,0.3046,0,0,0,0,0,0,0,0,0,0,0,0,0,0.2982,0.2984,0.3048,0.3047,0.3046,0.301,0.301,0.301,0.3002,0.3002,0.3001,0.3001,0.3043,0.3045,0.3046,0,0,0,0,0,0,0,0,0,0,0,0,0,0.2989,0.2985,0.3049,0.3034,0.3032,0.301,0.301,0.301,0.3002,0.3002,0.3001,0.3001,0.3043,0.3044,0.3046,0.3065,0,0,0.3053,0.3053,0,0,0,0,0,0,0,0,0.2989,0.2993,0.3037,0.3035,0.3032,0.3005,0.3001,0.303,0.3002,0.3019,0.3001,0.3001,0.3035,0.3037,0.3038,0.3067,0.3069,0.3053,0.3054,0.3055,0.3055,0,0,0,0,0,0,0,0.2989,0.2993,0.3039,0.3036,0.3033,0.2983,0.2986,0.3006,0.3035,0.3018,0.3016,0.3002,0.3035,0.3036,0.3039,0.307,0.3053,0.3054,0.3056,0.3056,0.32,0.3202,0,0,0,0,0,0,0.2991,0.2994,0.304,0.3037,0.3003,0.2985,0.2988,0.3019,0.3033,0.3033,0.3003,0.3002,0.3032,0.3036,0.304,0.3145,0.3055,0.3057,0.3058,0.3197,0.32,0.3203,0,0,0,0,0,0,0.299,0.2997,0.3041,0.3007,0.3008,0.2987,0.3021,0.3018,0.3035,0.302,0.3022,0.3023,0.3032,0.3037,0.3064,0.3143,0.3058,0.3059,0.3194,0.3198,0.3202,0.3302,0,0,0,0,0,0,0.2989,0.2998,0.3006,0.3009,0.301,0.3039,0.3021,0.3017,0.3023,0.3023,0.3038,0.304,0.3032,0.3061,0.3066,0.3144,0.3061,0.3191,0.3196,0.3201,0.3295,0.3308,0.332,0,0,0,0,0,0.2988,0.2979,0.3008,0.3011,0.3029,0.3039,0.3036,0.302,0.3025,0.3036,0.3042,0.3041,0.3098,0.3064,0.3069,0.315,0.3188,0.3195,0.32,0.3289,0.3306,0.332,0,0,0,0,0,0,0.2951,0.2977,0.3008,0.3012,0.3038,0.3035,0.303,0.3036,0.305,0.3059,0.3054,0.3057,0.3131,0.3114,0.3077,0.3207,0.3153,0.316,0.3219,0.3234,0.3246,0.3262,0.3063,0,0,0,0,0,0.2953,0.2978,0.2996,0.302,0.3029,0.3047,0.3044,0.3052,0.3062,0.3069,0.3081,0.3107,0.3158,0.3169,0.3206,0.325,0.3264,0.3312,0.3324,0.3335,0.3352,0.3448,0.3472,0.3223,0.3223,0.3222,0,0,0.2946,0.297,0.2982,0.3016,0.3041,0.3068,0.3048,0.3067,0.3103,0.3074,0.3127,0.316,0.3184,0.3252,0.3284,0.3243,0.3409,0.3342,0.3351,0.3363,0.3457,0.3482,0.3503,0.3227,0.3226,0.3225,0,0,0.2946,0.2983,0.2997,0.3047,0.3086,0.3083,0.3099,0.3122,0.3143,0.3184,0.3207,0.3265,0.3305,0.335,0.3376,0.3474,0.3488,0.3506,0.3565,0.3658,0.368,0.3699,0.3728,0.3749,0.3493,0.3494,0.3494,0,0.2938,0.2992,0.3001,0.3059,0.3099,0.3103,0.3146,0.3168,0.32,0.3234,0.3212,0.3335,0.3356,0.3466,0.3512,0.3507,0.3544,0.3504,0.3676,0.3695,0.3713,0.3738,0.376,0.3499,0.3498,0.3498,0.3497,0,0.2988,0.3035,0.306,0.3143,0.3166,0.3221,0.3251,0.3275,0.3289,0.3326,0.3432,0.3457,0.3528,0.3565,0.357,0.3729,0.3708,0.3697,0.3637,0.3745,0.3763,0.3784,0.3507,0.3505,0.3503,0.3502,0,0,0.2958,0.3068,0.308,0.3124,0.3236,0.3234,0.3311,0.3362,0.3404,0.346,0.3545,0.3647,0.3679,0.3712,0.3744,0.3821,0.3977,0.3824,0.3827,0.3851,0.4163,0.3938,0.3938,0.4014,0.4019,0.4023,0.4116,0,0.3006,0.3087,0.3144,0.3217,0.3254,0.3321,0.3382,0.3438,0.348,0.3558,0.3636,0.3738,0.3731,0.3788,0.3872,0.3975,0.4042,0.395,0.4057,0.4059,0.3846,0.3959,0.3641,0.3681,0.4136,0.414,0.4142,0,0.3045,0.3084,0.317,0.3241,0.3265,0.3319,0.3392,0.3469,0.36,0.3635,0.375,0.3825,0.3984,0.3949,0.4145,0.4098,0.415,0.4193,0.4197,0.397,0.3874,0.3653,0.3702,0.4177,0.4174,0.4172,0.4169,0,0.2981,0.3087,0.3139,0.3201,0.3293,0.334,0.3397,0.3512,0.3569,0.3737,0.3798,0.3957,0.4057,0.4175,0.4231,0.4246,0.4394,0.4414,0.4242,0.4224,0.3961,0.391,0.4548,0.4548,0.4548,0.4548,0.4548,0,0.302,0.3041,0.3118,0.316,0.3248,0.3317,0.3422,0.35,0.3606,0.3703,0.3871,0.3947,0.4135,0.4221,0.4278,0.4283,0.4425,0.4276,0.4252,0.3978,0.3931,0.4364,0.4342,0.4551,0.455,0.455,0.4549,0,0.2959,0.3036,0.3094,0.3183,0.3243,0.3318,0.346,0.3504,0.3619,0.3754,0.3825,0.399,0.4136,0.4213,0.4374,0.4309,0.4349,0.4295,0.3913,0.3842,0.4122,0.4104,0.421,0.4203,0.4198,0.4193,0.4189,0,0.2939,0.2988,0.3104,0.3171,0.3241,0.3356,0.3447,0.3551,0.3584,0.3755,0.3805,0.3982,0.4044,0.4125,0.4081,0.4084,0.422,0.375,0.3723,0.4131,0.4099,0.4089,0.4079,0.3421,0.3411,0.3403,0.3396,0,0.2914,0.2972,0.2987,0.3128,0.3252,0.3357,0.3463,0.3439,0.3554,0.3642,0.3704,0.3768,0.3866,0.371,0.3654,0.3626,0.3731,0.3583,0.4153,0.3521,0.3385,0.3353,0.337,0.3324,0.3331,0.3336,0.334,0.3343,0.2876,0.2924,0.2958,0.3079,0.3213,0.3256,0.326,0.3288,0.3313,0.3298,0.3451,0.3435,0.3453,0.3242,0.3113,0.3031,0.3335,0.3202,0.323,0.3266,0.3123,0.2981,0.2815,0.2819,0.2823,0.2826,0.2829,0,0.2832,0.2872,0.2917,0.302,0.3039,0.3169,0.3196,0.3089,0.3041,0.3074,0.3076,0.2768,0.263,0.2677,0.2436,0.2393,0.2413,0.2307,0.2327,0.2399,0.2464,0.2283,0.1752,0.1749,0.1746,0.1743,0,0,0.2821,0.2802,0.2809,0.2798,0.2865,0.2847,0.2823,0.2707,0.2661,0.2476,0.2428,0.2532,0.2608,0.216,0.2079,0.1883,0.2142,0.1808,0.2676,0.2776,0.2837,0.2982,0.2784,0,0,0,0,0]},{"header":{"parameterUnit":"m.s-1","parameterCategory":2,"la1":30.2991,"la2":30.254,"lo1":-89.0895,"lo2":-89.0444,"dy":0.0017,"dx":0.0017,"nx":28,"ny":28,"refTime":"2024-08-02T21:00:00:Z","depth":"2","parameterNumber":3,"parameterNumberName":"V-component_of_CURRENTS"},"data":[0,0,0,0,0,0,0,0,0,0,0,0,0,0,0,0,0,0,0,0,0,0,0,0,0,0,0,0,0,0,0,0,0,0,0,0,0,0,0,0,0,0,0,0,0,0,0,0,0,0,0,0,0,0,0,0,0,0,0.0123,0.0123,0,0.0079,0.0079,0.0078,0.0047,0.0046,0.0046,0.0046,-0.0019,-0.002,-0.0022,0,0,0,0,0,0,0,0,0,0,0,0,0,0.0119,0.0119,0.0123,0.0122,0.0122,0.0079,0.0079,0.0078,0.0047,0.0046,0.0046,0.0046,-0.0018,-0.002,-0.0022,0,0,0,0,0,0,0,0,0,0,0,0,0,0.0102,0.012,0.0123,0.0101,0.0099,0.008,0.0079,0.0078,0.0047,0.0046,0.0046,0.0046,-0.0018,-0.002,-0.0022,-0.003,0,0,-0.0029,-0.003,0,0,0,0,0,0,0,0,0.0103,0.0102,0.0105,0.0103,0.01,0.0068,0.0053,0.0041,0.0047,0.0066,0.0046,0.0046,0.0009,0.0005,-0.0003,-0.0033,-0.0035,-0.0029,-0.0031,-0.0032,-0.0032,0,0,0,0,0,0,0,0.0104,0.0104,0.0105,0.0105,0.0102,0.0073,0.0071,0.0051,0.0039,0.0064,0.0062,0.0058,0.0007,-0.0001,-0.0005,-0.0036,-0.0029,-0.0031,-0.0033,-0.0034,-0.0035,-0.0034,0,0,0,0,0,0,0.0115,0.0105,0.0107,0.0104,0.0101,0.0074,0.0071,0.0079,0.004,0.0034,0.0058,0.0057,0.0003,-0.0002,-0.0008,0.0024,-0.0032,-0.0034,-0.0035,-0.0036,-0.0035,-0.0033,0,0,0,0,0,0,0.0115,0.0116,0.0108,0.0103,0.01,0.0075,0.0083,0.0078,0.0073,0.0036,0.0029,0.0059,0.0003,-0.0004,-0.0021,0.0019,-0.0035,-0.0037,-0.0038,-0.0036,-0.0034,0.0059,0,0,0,0,0,0,0.0115,0.0116,0.0123,0.0104,0.0101,0.0103,0.0083,0.0077,0.0071,0.0069,0.0034,0.0027,0.0002,-0.0018,-0.0024,0.0015,-0.0039,-0.004,-0.0037,-0.0035,0.0054,0.0063,0.0072,0,0,0,0,0,0.0115,0.0129,0.0124,0.0123,0.0112,0.0103,0.0099,0.0078,0.0072,0.0072,0.0049,0.0029,-0.0005,-0.0019,-0.0026,0.0013,-0.0041,-0.0038,-0.0035,0.005,0.0062,0.0072,0,0,0,0,0,0,0.0126,0.0127,0.012,0.0132,0.012,0.0098,0.01,0.0085,0.0068,0.0068,0.0032,0.0024,0.003,0.0004,-0.0011,0.0021,-0.0021,-0.0019,0.0046,0.0057,0.0066,0.0082,-0.0041,0,0,0,0,0,0.0133,0.015,0.0135,0.0146,0.0144,0.0124,0.0117,0.0105,0.0087,0.0079,0.0057,0.004,0.0037,0.0031,0.0016,0.0023,-0.0,0.0047,0.0056,0.0064,0.0074,0.0075,0.0085,-0.0023,-0.0024,-0.0024,0,0,0.0136,0.0144,0.0149,0.015,0.0143,0.0149,0.012,0.0119,0.0133,0.0075,0.0087,0.0065,0.0044,0.0058,0.006,0.004,0.0082,0.0068,0.0075,0.008,0.0079,0.009,0.0099,-0.0021,-0.0022,-0.0022,0,0,0.0159,0.0164,0.0183,0.0181,0.0178,0.017,0.0173,0.0156,0.016,0.0155,0.0137,0.0133,0.0111,0.0116,0.0113,0.016,0.0128,0.0165,0.0226,0.0228,0.0237,0.0244,0.0224,0.0229,0.0172,0.0172,0.0172,0,0.0163,0.0189,0.0184,0.0201,0.0211,0.0186,0.0206,0.0206,0.0186,0.0208,0.0169,0.0166,0.0143,0.0182,0.0204,0.0183,0.017,0.0187,0.024,0.0247,0.0253,0.023,0.0235,0.0177,0.0177,0.0176,0.0176,0,0.02,0.0216,0.0229,0.0253,0.026,0.0274,0.0276,0.0293,0.0288,0.0286,0.0309,0.0265,0.0268,0.0268,0.0248,0.0301,0.0272,0.025,0.0214,0.027,0.0242,0.0245,0.0184,0.0182,0.0181,0.018,0,0,0.0228,0.0252,0.0258,0.0278,0.0293,0.0306,0.0352,0.039,0.0439,0.0401,0.0455,0.0432,0.0408,0.0404,0.038,0.0379,0.0408,0.0344,0.0342,0.0326,0.0403,0.033,0.0325,0.04,0.0401,0.0402,0.0363,0,0.0261,0.0309,0.0315,0.036,0.0385,0.0397,0.0448,0.0481,0.05,0.0544,0.0514,0.0545,0.0463,0.048,0.046,0.0437,0.0421,0.0419,0.0348,0.0346,0.0277,0.0329,0.0341,0.0303,0.0365,0.0366,0.0366,0,0.0304,0.0332,0.0384,0.0436,0.0452,0.0476,0.0573,0.061,0.0672,0.0699,0.0704,0.0684,0.069,0.0608,0.0551,0.0557,0.0489,0.0442,0.0439,0.0343,0.028,0.0258,0.0305,0.037,0.037,0.037,0.0369,0,0.0344,0.0385,0.0436,0.0449,0.0501,0.0543,0.058,0.0655,0.0735,0.0804,0.0875,0.0832,0.0846,0.075,0.0604,0.0614,0.051,0.0514,0.0369,0.0362,0.0343,0.0332,0.0466,0.0466,0.0466,0.0466,0.0467,0,0.0389,0.0423,0.0455,0.0478,0.0558,0.0581,0.0695,0.0739,0.0843,0.0971,0.0949,0.1026,0.089,0.0802,0.0655,0.0493,0.0537,0.0389,0.0357,0.0373,0.0365,0.0397,0.039,0.0465,0.0465,0.0466,0.0466,0,0.0417,0.0439,0.0491,0.0548,0.0573,0.0629,0.0762,0.0869,0.0955,0.1123,0.1166,0.1192,0.1125,0.0913,0.0758,0.058,0.0418,0.0333,0.0336,0.0305,0.027,0.0268,0.0256,0.0253,0.0251,0.0249,0.0248,0,0.0434,0.0466,0.0535,0.0597,0.0619,0.0717,0.0822,0.0915,0.1055,0.1233,0.1335,0.1318,0.132,0.1005,0.0715,0.0426,0.0386,0.0224,0.0252,0.0285,0.0254,0.0255,0.0256,0.0264,0.0262,0.0261,0.026,0,0.0469,0.0494,0.0545,0.0674,0.077,0.0895,0.104,0.1159,0.1323,0.1464,0.1619,0.1617,0.1367,0.1087,0.0646,0.0449,0.0276,0.0196,0.0244,0.0302,0.0285,0.0256,0.0259,0.0251,0.0251,0.0252,0.0253,0.0253,0.0499,0.055,0.0649,0.0772,0.0895,0.1072,0.1194,0.138,0.1578,0.1766,0.1755,0.1739,0.1439,0.0911,0.0569,0.0222,0.0273,0.0139,0.0146,0.0153,0.0148,0.0127,0.0062,0.0061,0.0061,0.0061,0.0061,0,0.0559,0.0641,0.0762,0.0914,0.1062,0.1115,0.1361,0.149,0.1719,0.1825,0.1894,0.1583,0.1275,0.0934,0.0435,0.013,0.0128,0.0024,0.0101,0.0111,0.012,0.0117,0.002,0.0019,0.0018,0.0018,0,0,0.0601,0.0728,0.0799,0.1041,0.1151,0.1354,0.1487,0.1656,0.1777,0.1844,0.1815,0.173,0.1352,0.0983,0.0586,0.0309,0.0275,0.0241,0.0301,0.0447,0.046,0.0205,0.0212,0,0,0,0,0]}],[{"header":{"parameterUnit":"m.s-1","parameterCategory":2,"la1":30.2991,"la2":30.254,"lo1":-89.0895,"lo2":-89.0444,"dy":0.0017,"dx":0.0017,"nx":28,"ny":28,"refTime":"2024-08-02T21:00:00:Z","depth":"4","parameterNumber":2,"parameterNumberName":"U-component_of_CURRENTS"},"data":[0,0,0,0,0,0,0,0,0,0,0,0,0,0,0,0,0,0,0,0,0,0,0,0,0,0,0,0,0,0,0,0,0,0,0,0,0,0,0,0,0,0,0,0,0,0,0,0,0,0,0,0,0,0,0,0,0,0,0.1438,0.1439,0,0.1462,0.1462,0.1462,0.1477,0.1478,0.1479,0.148,0.1521,0.1522,0.1522,0,0,0,0,0,0,0,0,0,0,0,0,0,0.1453,0.1451,0.1438,0.1439,0.144,0.1462,0.1462,0.1461,0.1477,0.1478,0.1479,0.148,0.1521,0.1522,0.1522,0,0,0,0,0,0,0,0,0,0,0,0,0,0.1451,0.1451,0.1438,0.1456,0.1459,0.1462,0.1462,0.1461,0.1477,0.1478,0.1479,0.1481,0.1521,0.1522,0.1522,0.1501,0,0,0.1524,0.1524,0,0,0,0,0,0,0,0,0.1451,0.1449,0.1452,0.1455,0.1458,0.1475,0.1483,0.1478,0.1477,0.1462,0.148,0.1481,0.1511,0.1513,0.1503,0.1503,0.1505,0.1524,0.1524,0.1524,0.1524,0,0,0,0,0,0,0,0.1451,0.1449,0.144,0.1454,0.1457,0.148,0.148,0.1481,0.1474,0.1463,0.1466,0.1481,0.1512,0.1503,0.1505,0.1506,0.1524,0.1524,0.1525,0.1525,0.163,0.1632,0,0,0,0,0,0,0.1459,0.1448,0.1439,0.1441,0.1466,0.1479,0.1479,0.1462,0.1474,0.1479,0.148,0.1482,0.1501,0.1504,0.1506,0.1604,0.1524,0.1525,0.1525,0.1628,0.1631,0.1633,0,0,0,0,0,0,0.1459,0.1457,0.1438,0.1454,0.1454,0.1478,0.1459,0.1462,0.1494,0.1488,0.1492,0.1515,0.1502,0.1506,0.1537,0.1601,0.1525,0.1526,0.1625,0.1628,0.1632,0.1721,0,0,0,0,0,0,0.1458,0.1455,0.1464,0.1453,0.1454,0.1461,0.1459,0.1462,0.1502,0.1505,0.1518,0.152,0.1504,0.1537,0.1538,0.1601,0.1526,0.1621,0.1626,0.1631,0.1715,0.1728,0.1738,0,0,0,0,0,0.1458,0.1461,0.1463,0.1465,0.1457,0.1463,0.1465,0.1481,0.1503,0.1515,0.1529,0.1522,0.1568,0.1538,0.1539,0.1604,0.1619,0.1625,0.163,0.171,0.1725,0.1738,0,0,0,0,0,0,0.1476,0.1464,0.1466,0.1466,0.1476,0.1469,0.1492,0.1506,0.1524,0.1541,0.1534,0.1537,0.159,0.1584,0.1551,0.165,0.1601,0.1607,0.1662,0.1676,0.1687,0.1716,0.1526,0,0,0,0,0,0.1482,0.1483,0.1476,0.1485,0.1489,0.1499,0.1514,0.1524,0.1535,0.1546,0.1565,0.1589,0.1606,0.1631,0.1635,0.1683,0.1679,0.1733,0.1745,0.1754,0.1781,0.1818,0.1835,0.1651,0.1651,0.1651,0,0,0.1497,0.1493,0.1497,0.1492,0.1499,0.1494,0.1509,0.1538,0.1567,0.1548,0.1608,0.1621,0.1624,0.1674,0.1701,0.1684,0.1802,0.1761,0.1769,0.1792,0.1825,0.1843,0.1859,0.1655,0.1655,0.1654,0,0,0.1508,0.1517,0.151,0.1512,0.1532,0.1532,0.1551,0.1569,0.1615,0.1663,0.1664,0.1726,0.175,0.1778,0.1789,0.1873,0.1851,0.1882,0.1977,0.2012,0.2028,0.2041,0.2044,0.2057,0.1901,0.1901,0.1901,0,0.1526,0.1501,0.1517,0.1505,0.1508,0.155,0.1539,0.1589,0.1631,0.1691,0.17,0.1789,0.1806,0.1872,0.1918,0.1903,0.1901,0.1919,0.2027,0.204,0.2053,0.2052,0.2065,0.1906,0.1905,0.1905,0.1904,0,0.1513,0.1501,0.1503,0.1489,0.1502,0.1508,0.1557,0.1639,0.1711,0.1756,0.1871,0.1901,0.1964,0.1989,0.1987,0.2093,0.2054,0.2023,0.1989,0.2076,0.207,0.2082,0.1913,0.1911,0.191,0.1909,0,0,0.1512,0.1491,0.1494,0.1483,0.149,0.1503,0.1592,0.1672,0.1771,0.1857,0.1961,0.205,0.2102,0.2122,0.2138,0.2198,0.2293,0.2171,0.217,0.2168,0.2351,0.2187,0.2183,0.2275,0.2278,0.2281,0.2305,0,0.1489,0.1455,0.1455,0.1448,0.1425,0.1503,0.1567,0.1671,0.1797,0.1924,0.2028,0.2115,0.2137,0.2192,0.2259,0.2278,0.2332,0.2288,0.2272,0.2271,0.2111,0.2195,0.2291,0.2314,0.2316,0.2318,0.232,0,0.146,0.1436,0.1407,0.1421,0.1424,0.1448,0.16,0.1663,0.186,0.1982,0.2122,0.2184,0.2313,0.2306,0.2412,0.238,0.2395,0.2404,0.2403,0.2233,0.2131,0.2213,0.2341,0.2339,0.2338,0.2336,0.2335,0,0.1433,0.1412,0.1393,0.1388,0.141,0.1475,0.1518,0.1692,0.1801,0.2027,0.2145,0.227,0.2366,0.2406,0.247,0.2448,0.255,0.2501,0.2362,0.2348,0.2445,0.2431,0.2578,0.2578,0.2578,0.2578,0.2578,0,0.138,0.1368,0.1395,0.1379,0.1395,0.1441,0.1543,0.1663,0.1854,0.1974,0.2156,0.2277,0.2408,0.248,0.2489,0.2465,0.2566,0.24,0.2357,0.2479,0.2468,0.2452,0.2437,0.2579,0.2579,0.2579,0.2578,0,0.1313,0.1334,0.1306,0.1346,0.1366,0.1381,0.151,0.1619,0.1821,0.1995,0.207,0.2317,0.2422,0.2497,0.2573,0.249,0.2472,0.2436,0.2566,0.2526,0.2236,0.2226,0.2266,0.2261,0.2256,0.2252,0.2249,0,0.1258,0.1236,0.1262,0.1262,0.1274,0.1331,0.1389,0.1582,0.1688,0.1996,0.2045,0.2262,0.2395,0.2377,0.2453,0.2432,0.241,0.236,0.2311,0.2256,0.2212,0.2208,0.2204,0.2242,0.2241,0.224,0.2239,0,0.1139,0.1174,0.1158,0.1165,0.1212,0.125,0.1335,0.1408,0.1646,0.1847,0.2023,0.2123,0.2239,0.2293,0.2309,0.2285,0.2362,0.2313,0.2321,0.2275,0.2228,0.2187,0.2188,0.2223,0.2225,0.2227,0.2228,0,0.1058,0.1025,0.1059,0.1064,0.1106,0.1153,0.1211,0.1334,0.1465,0.1781,0.1822,0.2059,0.2234,0.2217,0.2216,0.2195,0.2153,0.2049,0.2071,0.2088,0.2016,0.1929,0.1818,0,0,0,0,0,0.0983,0.0972,0.0962,0.0957,0.1006,0.1057,0.1175,0.1263,0.1474,0.1552,0.1697,0.1806,0.1915,0.2006,0.1946,0.2087,0.2123,0.1999,0.2005,0.2138,0.2155,0.2085,0,0,0,0,0,0,0.093,0.093,0.0941,0.0921,0.0899,0.0962,0.1045,0.1184,0.1212,0.1433,0.1495,0.166,0.1768,0.194,0.1909,0.1925,0.1878,0.2112,0.2106,0.2127,0.2144,0.2158,0.2091,0,0,0,0,0]},{"header":{"parameterUnit":"m.s-1","parameterCategory":2,"la1":30.2991,"la2":30.254,"lo1":-89.0895,"lo2":-89.0444,"dy":0.0017,"dx":0.0017,"nx":28,"ny":28,"refTime":"2024-08-02T21:00:00:Z","depth":"4","parameterNumber":3,"parameterNumberName":"V-component_of_CURRENTS"},"data":[0,0,0,0,0,0,0,0,0,0,0,0,0,0,0,0,0,0,0,0,0,0,0,0,0,0,0,0,0,0,0,0,0,0,0,0,0,0,0,0,0,0,0,0,0,0,0,0,0,0,0,0,0,0,0,0,0,0,0.0076,0.0076,0,0.0067,0.0067,0.0067,0.0071,0.0071,0.0071,0.0072,0.0037,0.0036,0.0035,0,0,0,0,0,0,0,0,0,0,0,0,0,0.0062,0.0063,0.0076,0.0076,0.0076,0.0067,0.0067,0.0067,0.0071,0.0071,0.0071,0.0072,0.0037,0.0036,0.0035,0,0,0,0,0,0,0,0,0,0,0,0,0,0.0063,0.0063,0.0076,0.0076,0.0076,0.0067,0.0067,0.0067,0.0071,0.0071,0.0072,0.0072,0.0038,0.0036,0.0035,0.0021,0,0,0.003,0.0029,0,0,0,0,0,0,0,0,0.0063,0.0064,0.0076,0.0076,0.0076,0.007,0.005,0.005,0.0071,0.0074,0.0072,0.0072,0.0045,0.0043,0.0042,0.002,0.0018,0.003,0.0029,0.0028,0.0028,0,0,0,0,0,0,0,0.0063,0.0064,0.0074,0.0076,0.0076,0.0065,0.0065,0.005,0.0059,0.0074,0.0074,0.0071,0.0045,0.0044,0.0041,0.0018,0.003,0.0029,0.0028,0.0027,-0.0021,-0.0021,0,0,0,0,0,0,0.0064,0.0064,0.0074,0.0073,0.0069,0.0065,0.0066,0.0072,0.0059,0.0057,0.0071,0.0071,0.0046,0.0043,0.004,0.0035,0.0028,0.0027,0.0026,-0.002,-0.0021,-0.0021,0,0,0,0,0,0,0.0064,0.0065,0.0074,0.0067,0.0067,0.0065,0.0072,0.0072,0.0073,0.0057,0.0055,0.0072,0.0046,0.0042,0.0035,0.0033,0.0026,0.0025,-0.002,-0.002,-0.0021,0.0017,0,0,0,0,0,0,0.0064,0.0066,0.007,0.0068,0.0068,0.0073,0.0072,0.0072,0.007,0.0071,0.0057,0.0055,0.0046,0.0037,0.0033,0.0031,0.0023,-0.0019,-0.002,-0.0021,0.0016,0.0017,0.0019,0,0,0,0,0,0.0063,0.0074,0.0071,0.0071,0.0075,0.0073,0.0072,0.0071,0.007,0.0072,0.0067,0.0055,0.003,0.0036,0.0031,0.0028,-0.0019,-0.002,-0.0021,0.0015,0.0017,0.0019,0,0,0,0,0,0,0.0067,0.0074,0.0071,0.0082,0.0077,0.0073,0.0076,0.0071,0.0069,0.0071,0.0056,0.0053,0.0042,0.0028,0.0035,0.0011,0.0001,-0.0001,0.0029,0.0031,0.0033,0.0052,0.0022,0,0,0,0,0,0.007,0.0083,0.0078,0.0086,0.0085,0.0079,0.0078,0.0077,0.0073,0.0072,0.0063,0.0049,0.0034,0.0029,0.0013,0.0004,-0.0021,-0.0004,-0.0003,-0.0001,0.001,-0.0035,-0.0036,-0.0023,-0.0023,-0.0023,0,0,0.0071,0.0079,0.0084,0.0088,0.0086,0.0091,0.008,0.0082,0.009,0.0068,0.0076,0.0054,0.0032,0.0024,0.0017,0.0014,-0.0019,-0.0002,-0.0,0.001,-0.0036,-0.0037,-0.0038,-0.0024,-0.0024,-0.0024,0,0,0.0088,0.0089,0.0107,0.0106,0.0106,0.0101,0.0101,0.0097,0.0101,0.0097,0.0084,0.0066,0.0044,0.0034,0.0023,0.0022,-0.0011,0.0008,0.0036,-0.0008,-0.0009,-0.001,-0.0045,-0.005,0.0012,0.0012,0.0012,0,0.0091,0.0115,0.0108,0.0123,0.0132,0.0107,0.0126,0.0119,0.0114,0.0122,0.0104,0.0069,0.005,0.0042,0.0044,0.0027,-0.0002,0.0034,-0.0005,-0.0006,-0.0008,-0.0044,-0.005,0.0014,0.0014,0.0013,0.0013,0,0.0118,0.0138,0.0148,0.0163,0.0166,0.0177,0.0168,0.0171,0.0162,0.0154,0.0141,0.0104,0.009,0.0069,0.0059,0.0038,0.002,0.0001,-0.0005,-0.0007,-0.0045,-0.0051,0.0016,0.0016,0.0015,0.0015,0,0,0.013,0.0164,0.0168,0.0196,0.0194,0.0207,0.0215,0.0225,0.0244,0.0204,0.0216,0.0172,0.0148,0.0135,0.0104,0.0063,0.0022,0.0033,0.003,0.0006,-0.0073,-0.0051,-0.0056,-0.0008,-0.0008,-0.0009,-0.0094,0,0.0159,0.021,0.0214,0.0259,0.0285,0.0278,0.0294,0.0297,0.0286,0.0285,0.023,0.0221,0.0173,0.0168,0.0117,0.0045,0.0007,0.0047,-0.0074,-0.0077,-0.0051,-0.0062,-0.0012,-0.0099,-0.01,-0.0101,-0.0102,0,0.0186,0.0224,0.0281,0.0336,0.0347,0.0369,0.0407,0.0417,0.04,0.0393,0.0356,0.0307,0.0249,0.0204,0.0073,0.0099,0.0027,-0.004,-0.0045,-0.0039,-0.0067,-0.0098,-0.0115,-0.0114,-0.0113,-0.0112,-0.0111,0,0.0214,0.0273,0.0331,0.0346,0.0391,0.043,0.0452,0.0458,0.0489,0.0463,0.0469,0.0375,0.0343,0.0217,0.0082,0.0076,-0.0072,-0.0097,-0.0147,-0.0147,-0.0157,-0.0155,-0.0181,-0.018,-0.018,-0.018,-0.018,0,0.0247,0.0295,0.0359,0.039,0.047,0.0485,0.0561,0.0564,0.0583,0.0612,0.0533,0.0518,0.0344,0.0236,0.0098,-0.0043,-0.0061,-0.0138,-0.0166,-0.014,-0.0135,-0.0162,-0.0159,-0.0183,-0.0182,-0.0182,-0.0181,0,0.0273,0.0306,0.0381,0.0455,0.0487,0.0546,0.0641,0.069,0.0697,0.0728,0.0724,0.0628,0.0486,0.0309,0.0107,0.0005,-0.0151,-0.019,-0.0141,-0.0166,-0.0201,-0.0195,-0.0258,-0.0258,-0.0258,-0.0258,-0.0258,0,0.029,0.0331,0.0433,0.0483,0.0528,0.0625,0.0691,0.0741,0.0782,0.0787,0.0789,0.0688,0.0599,0.0333,0.0139,-0.0114,-0.0143,-0.0217,-0.0216,-0.0188,-0.0209,-0.0203,-0.0197,-0.0258,-0.0258,-0.0258,-0.0257,0,0.032,0.0359,0.0423,0.0533,0.062,0.0718,0.0805,0.0848,0.0891,0.0901,0.0854,0.0726,0.0577,0.0349,0.0169,-0.002,-0.0176,-0.0217,-0.0219,-0.0219,-0.0188,-0.0208,-0.0202,-0.0257,-0.0257,-0.0257,-0.0257,0,0.034,0.0387,0.0473,0.0579,0.0673,0.0765,0.0827,0.088,0.0929,0.0923,0.09,0.0745,0.0649,0.0398,0.0213,0.0047,0.0002,-0.0055,-0.0066,-0.0069,0.001,0.0078,0.0071,0,0,0,0,0,0.0364,0.0422,0.051,0.0613,0.0708,0.0773,0.0872,0.0923,0.0962,0.0943,0.0929,0.0788,0.0548,0.043,0.0269,0.0198,-0.004,0.0003,-0.0115,-0.0256,-0.0256,-0.0195,0,0,0,0,0,0,0.0375,0.0455,0.051,0.0626,0.0696,0.081,0.0879,0.092,0.0903,0.0911,0.0779,0.0738,0.0491,0.0632,0.0258,0.0209,0.0112,-0.0109,-0.0113,-0.0256,-0.0256,-0.0256,-0.0193,0,0,0,0,0]}]]